DECAYED

STARLINK-1637, 46133 (Decayed)

Orbit data source: Space-Track

STARLINK-1637, 46133 was a payload satellite owned by SpaceX/Seattle (US) in LEO that was launched on Tue, 18 Aug 2020 UTC via an FALCON 9 launch vehicle from the Air Force Eastern Test Range (AFETR). Payload-class satellites include a variety of spacecraft equipped with specific instruments for various scientific and technological missions. These include communications satellites like Starlink; space stations such as the ISS; scientific satellites like the Hubble; Earth observation satellites from companies like Planet Labs, Umbra, and HawkEye 360; GPS; miniature CubeSats for education and research; and military/defense satellites.

Not visible in the next 10 days
Identifier
46133, 2020-057S
Orbit
Decayed
Country
Flag of USUS
Related business
Manufacturer
SpaceX/Seattle
Mission
Decayed Commercial Communications
Bus & Motor
STARLINK, Unknown motor
Mass
260 kg wet, ~248 kg dry
Launch date (UTC)
2020-08-18 (6 years ago)
Launch vehicle
FALCON 9
Launch site
Air Force Eastern Test Range (AFETR)
Object type
Payload
Rocket body
Debris
Shape & HBR
Box + 1 Pan, 10.1 m
Radar Cross Section
13.562 m², Large (>1 m²)

Expand to show TLE details & history
Last TLE update: 1 year ago

TLE from 1 year ago
0 STARLINK-1637
1 46133U 20057S   25055.36268997  .07717993  12277-4  11493-2 0  9994
2 46133  53.0155 126.8384 0006243 357.6470  52.6884 16.33591677250780
Epoch: 2025-02-24T08:42Z
TLE epoch observation values (Epoch: 2025-02-24T08:42:16.413Z)
Latitude
38.11121°
Longitude
-122.24115°
Altitude
183.589 km
Speed
7.803 km/s
True Right ascension
10h 51m 14s
True Declination
37° 55' 47"
Sunlit
Object was in full shadow at epoch
Visualization orbit readout
Latitude
Unknown
Longitude
Unknown
Altitude
Unknown
Speed
Unknown
Apparent Right ascension
Unknown
Apparent Declination
Unknown
Sunlit
N/A
Visualization observer readout
Local Sidereal Time
18:20:10
Azimuth
Unknown
Elevation
Unknown
Doppler factor
Unknown
Orbital elements
Apogee altitude
187.293 km
Perigee altitude
179.101 km
Semi-major axis
6,561.334 km
Eccentricity
0.00062
Inclination
53.0155°
RAAN
126.8384°
Arg. of periapsis
357.647°
True anomaly
52.74533°
Mean anomaly
52.6884°
Eccentric anomaly
52.71686°
Mean motion
4.08371 °/min
Orbital period
88.16 mins
BSTAR
0.0011493
Loading maneuver chart data...
Computing Atmospheric mass density...

Documentation

Showing up to 5 results
|